Regional Weather Roundup
Issued by NWS Boston, MA

Current Version | Previous Version | Text Only | Print | Product List | Glossary On
Versions: 1 2 3 4 5 6 7 8 9 10 11 12 13 14 15 16 17 18 19 20 21 22 23 24 25 26 27 28 29 30 31 32 33 34 35 36 37 38 39 40 41 42 43 44 45 46 47 48
000 ASUS41 KBOX 050210 RWRBOX REGIONAL WEATHER ROUNDUP NATIONAL WEATHER SERVICE TAUNTON MA 1000 PM EDT SAT JUL 04 2015 NOTE: "FAIR" INDICATES FEW OR NO CLOUDS BELOW 12,000 FEET WITH NO SIGNIFICANT WEATHER AND/OR OBSTRUCTIONS TO VISIBILITY. THE FOLLOWING OBSERVATION LOCATIONS DO NOT REPORT PRESENT WEATHER...PROVINCETOWN... SMITHFIELD...BLOCK ISLAND...KEENE...AND OXFORD. MAZALL-050300- EASTERN MASSACHUSETTS CITY SKY/WX TMP DP RH WIND PRES REMARKS BOSTON PTCLDY 63 57 81 S3 29.99R BEVERLY CLEAR 59 54 83 CALM 29.98R LAWRENCE CLEAR 60 58 92 CALM 30.00R BEDFORD CLEAR 60 59 96 CALM 29.98R BLUE HILL N/A 63 57 81 CALM 29.99R NORWOOD CLEAR 58 55 90 CALM 29.98R MARSHFIELD CLEAR 59 57 94 W3 30.00R PLYMOUTH CLEAR 58 52 80 CALM 29.99R TAUNTON CLEAR 56 53 90 CALM 29.99R NEW BEDFORD CLEAR 56 53 90 CALM 29.98R $$ MAZALL-050300- CAPE COD AND THE ISLANDS CITY SKY/WX TMP DP RH WIND PRES REMARKS FALMOUTH CLEAR 59 54 82 N5 29.98R HYANNIS CLEAR 59 54 83 NW3 29.97R CHATHAM CLEAR 59 56 89 CALM 29.97R PROVINCETOWN CLEAR 59 3 10 N6 29.98R NANTUCKET CLEAR 61 57 87 N6 29.96R MARTHAS VNYRD CLEAR 54 51 90 NW6 29.98R $$ MAZALL-050300- CENTRAL AND WESTERN MASSACHUSETTS CITY SKY/WX TMP DP RH WIND PRES REMARKS WORCESTER CLEAR 61 56 83 W6 30.01R FITCHBURG CLEAR 62 58 86 NW6 30.00R ORANGE FOG 59 59 100 CALM 30.01R VSB 1/4 SPRINGFIELD CLEAR 57 56 96 NE2 29.99R WESTFIELD PTCLDY 61 59 93 CALM 30.00R NORTH ADAMS MOCLDY 57 56 96 CALM 30.02R FOG PITTSFIELD CLEAR 57 55 93 CALM 30.01R $$ RIZALL-050300- RHODE ISLAND CITY SKY/WX TMP DP RH WIND PRES REMARKS PROVIDENCE PTCLDY 66 59 78 N6 29.99R HAZE NEWPORT PTCLDY 62 59 90 CALM 29.99R BLOCK ISLAND PTCLDY 63 52 67 SW3 29.99R SMITHFIELD CLEAR 57 52 82 CALM 29.99R WESTERLY CLEAR 63 57 81 CALM 30.00R $$ CTZALL-050300- CONNECTICUT CITY SKY/WX TMP DP RH WIND PRES REMARKS BRADLEY INTL CLEAR 62 59 90 W3 29.99R HARTFORD CLEAR 63 59 87 MISG 29.99R BRIDGEPORT PTCLDY 69 60 73 CALM 30.00R DANBURY CLEAR 60 55 83 SW5 30.02R GROTON CLEAR 63 57 81 CALM 29.99R NEW HAVEN CLEAR 62 55 77 CALM 30.00R CHESTER NOT AVBL MERIDEN CLEAR 63 58 83 CALM 30.00R WILLIMANTIC CLEAR 63 60 90 CALM 30.00R OXFORD CLEAR 59 52 77 CALM 30.02R $$ MEZ002-015-021-024-NHZ003-005-008-011-012-014-VTZ005-008-050300- NORTHERN NEW ENGLAND CITY SKY/WX TMP DP RH WIND PRES REMARKS PORTLAND ME PTCLDY 61 59 93 VRB3 29.97R BANGOR ME MOCLDY 62 56 80 S5 29.94S CONCORD NH CLEAR 57 56 96 CALM 29.99R FOG MANCHESTER NH PTCLDY 63 60 90 CALM 29.97R NASHUA NH FOG 61 61 100 CALM 30.00R VSB 3/4 PORTSMOUTH NH PTCLDY 61 59 93 S3 29.97R JAFFREY NH PTCLDY 56 55 97 CALM 30.02R FOG KEENE NH PTCLDY 57 54 88 CALM 30.01R BURLINGTON VT CLOUDY 65 61 87 S12 29.96R MT. WASHINGTON MOCLDY 45 43 93 W23 N/A $$ NYZ052-076-050300- EASTERN NEW YORK CITY SKY/WX TMP DP RH WIND PRES REMARKS ALBANY PTCLDY 63 60 90 CALM 30.00R NEW YORK CITY MOCLDY 73 55 53 E3 29.99R $$ ANZALL-050300- MARINE OBSERVATIONS STATION/POSITION TIME TEMP WIND PRES VSBY WAVE AIR SEA DIR/SP/G HT/PER (UTC) (F) (DEG/KT/KT) (MB) (MI) (FT/S) BOSTON BUOY 0150 62 62 250/ 2/ 2 1015.5R 1/ 8 BUZZARDS BAY 0100 20/ 8/ 8 1015.2R NANTUCKET SOUND 0150 64 66 10/ 6/ 6 1014.4R 1/ 3 MASS BAY-STELLWA 0104 63 63 160/ 2/ 2 1013.8R 1 7/8 2/ 8 ISLE OF SHOALS 0200 64 210/ 6/ 6 1014.7R S OF BLOCK IS 0108 67 N/A 3/ 8 $$ ......................KEY......................... SKY/WX - SKY CONDITION/PRESENT WEATHER TMP - TEMPERATURE IN FAHRENHEIT DWPT - DEWPOINT IN FAHRENHEIT RH - RELATIVE HUMIDITY IN PERCENT WIND - DIRECTION AND SPEED IN MPH PRES - MEAN SEA LEVEL PRESSURE IN INCHES OF HG WCI - WIND CHILL INDEX VSB - VISIBILITY IN MILES HX - HEAT INDEX TC - TEMPERATURE IN CELSIUS VRB - VARIABLE WIND DIRECTION N/A - NOT AVAILABLE

USA.gov is the U.S. government's official web portal to all federal, state and local government web resources and services.